Change the Weather History Date:

Sunday, March 9, 2014

  Actual Average (KEKN) Record (KEKN)
Temperature  
Mean Temperature 37 °F 38 °F  
Max Temperature 44 °F 49 °F 75 °F (1909)
Min Temperature 30 °F 26 °F -4 °F (1960)
Degree Days  
Heating Degree Days 28 27  
Month to date heating degree days 257  
Since 1 July heating degree days 4578  
Cooling Degree Days 0 0  
Month to date cooling degree days 0  
Year to date cooling degree days 0  
Moisture  
Dew Point 26 °F    
Average Humidity 72    
Maximum Humidity 100    
Minimum Humidity 49    
Precipitation  
Precipitation 0.01 in 0.13 in 1.11 in (1905)
Month to date precipitation 1.10  
Year to date precipitation 7.43  
Snow  
Snow 0.00 in - - ()
Month to date snowfall  
Since 1 September snowfall  
Snow Depth -    
Sea Level Pressure  
Sea Level Pressure 30.10 in    
Wind  
Wind Speed 7 mph (West)    
Max Wind Speed 14 mph    
Max Gust Speed 20 mph    
Visibility 9 miles    
Events Rain , Snow    
T = Trace of Precipitation, MM = Missing Value Source: NWS Daily Summary

Daily Weather History Graph

Daily Weather History Graph

Search for Another Location

Airport or City:

Trip Planner

Search our weather history database for the weather conditions in past years. The results will help you decide how hot, cold, wet, or windy it might be!

Date:

Astronomy

Mar. 09, 2014 Rise Set
Actual Time 7:41 AM EDT 7:22 PM EDT
Civil Twilight 7:15 AM EDT 7:48 PM EDT
Nautical Twilight 6:44 AM EDT 8:19 PM EDT
Astronomical Twilight 6:13 AM EDT 8:50 PM EDT
Moon 1:15 PM EDT (3/9) 3:03 AM EDT (3/9)
Length of Visible Light 12h 33m
Length of Day
11h 40m
First Quarter, 61% of the Moon is Illuminated
Mar 9
First Quarter
Mar 16
Full
Mar 23
Last Quarter
Mar 30
New
Apr 7
First Quarter

Hourly Weather History & Observations

Time (EDT) Temp. Windchill Dew Point Humidity Pressure Visibility Wind Dir Wind Speed Gust Speed Precip Events Conditions
12:15 AM 44.6 °F 40.2 °F 33.8 °F 66% 30.00 in 10.0 mi NW 8.1 mph - N/A   Scattered Clouds
12:35 AM 42.8 °F 38.6 °F 35.6 °F 76% 30.01 in 5.0 mi NW 6.9 mph - N/A Rain Rain
12:55 AM 42.8 °F 38.0 °F 37.4 °F 81% 30.01 in 10.0 mi NNW 8.1 mph - 0.01 in   Mostly Cloudy
1:15 AM 39.2 °F 32.5 °F 37.4 °F 93% 30.03 in 5.0 mi North 10.4 mph 19.6 mph N/A   Mostly Cloudy
1:35 AM 39.2 °F 33.0 °F 35.6 °F 87% 30.03 in 4.0 mi NNW 9.2 mph - N/A   Mostly Cloudy
1:55 AM 37.4 °F 28.9 °F 33.8 °F 87% 30.04 in 5.0 mi NNW 13.8 mph - N/A   Haze
3:15 AM 37.4 °F 29.3 °F 32.0 °F 81% 30.04 in 6.0 mi NNW 12.7 mph 18.4 mph N/A   Haze
3:35 AM 37.4 °F 32.1 °F 32.0 °F 81% 30.05 in 7.0 mi NW 6.9 mph 16.1 mph N/A   Mostly Cloudy
3:55 AM 35.6 °F 29.2 °F 32.0 °F 87% 30.05 in 7.0 mi NW 8.1 mph - N/A   Mostly Cloudy
4:15 AM 35.6 °F 28.0 °F 32.0 °F 87% 30.06 in 7.0 mi NNW 10.4 mph 17.3 mph N/A   Mostly Cloudy
4:35 AM 35.6 °F 29.2 °F 32.0 °F 87% 30.07 in 7.0 mi NW 8.1 mph - N/A   Mostly Cloudy
4:55 AM 33.8 °F 26.4 °F 32.0 °F 93% 30.07 in 8.0 mi NNW 9.2 mph - N/A   Overcast
5:15 AM 33.8 °F 27.0 °F 30.2 °F 87% 30.08 in 8.0 mi NNW 8.1 mph - N/A   Overcast
5:35 AM 33.8 °F 26.4 °F 30.2 °F 87% 30.09 in 7.0 mi NNW 9.2 mph - N/A   Mostly Cloudy
5:55 AM 32.0 °F 25.6 °F 30.2 °F 93% 30.10 in 8.0 mi NW 6.9 mph - N/A   Overcast
6:15 AM 32.0 °F 24.2 °F 30.2 °F 93% 30.11 in 8.0 mi NW 9.2 mph - N/A   Overcast
6:35 AM 32.0 °F 24.2 °F 28.4 °F 87% 30.12 in 9.0 mi NNW 9.2 mph - N/A   Overcast
6:55 AM 32.0 °F 26.4 °F 30.2 °F 93% 30.12 in 8.0 mi NNW 5.8 mph - N/A   Overcast
7:15 AM 32.0 °F 24.2 °F 30.2 °F 93% 30.14 in 5.0 mi NNW 9.2 mph - N/A   Overcast
7:35 AM 32.0 °F 27.5 °F 30.2 °F 93% 30.14 in 5.0 mi North 4.6 mph - N/A   Overcast
7:50 AM 32.0 °F 25.6 °F 30.2 °F 93% 30.14 in 5.0 mi NW 6.9 mph - N/A   Overcast
8:15 AM 30.2 °F 22.6 °F 30.2 °F 100% 30.15 in 4.0 mi WNW 8.1 mph - N/A Snow Light Snow
8:35 AM 30.2 °F 22.6 °F 28.4 °F 93% 30.16 in 5.0 mi NW 8.1 mph - N/A   Overcast
8:55 AM 30.2 °F 22.6 °F 28.4 °F 93% 30.16 in 7.0 mi NW 8.1 mph - N/A   Overcast
9:15 AM 30.2 °F 23.4 °F 28.4 °F 93% 30.18 in 8.0 mi NW 6.9 mph - N/A Snow Light Snow
9:35 AM 30.2 °F 25.4 °F 26.6 °F 86% 30.18 in 8.0 mi NW 4.6 mph - N/A   Overcast
9:55 AM 30.2 °F 24.3 °F 26.6 °F 86% 30.19 in 7.0 mi NNW 5.8 mph - N/A Snow Light Snow
10:15 AM 30.2 °F 21.3 °F 24.8 °F 80% 30.20 in 10.0 mi WNW 10.4 mph - N/A   Overcast
10:35 AM 30.2 °F 21.9 °F 24.8 °F 80% 30.19 in 7.0 mi West 9.2 mph - N/A   Overcast
10:55 AM 30.2 °F - 23.0 °F 75% 30.19 in 10.0 mi Calm Calm - N/A   Overcast
11:15 AM 30.2 °F 23.4 °F 23.0 °F 75% 30.19 in 10.0 mi WNW 6.9 mph - N/A   Overcast
11:35 AM 32.0 °F 26.4 °F 23.0 °F 69% 30.19 in 10.0 mi West 5.8 mph - N/A   Overcast
11:55 AM 32.0 °F 27.5 °F 23.0 °F 69% 30.19 in 10.0 mi West 4.6 mph - N/A   Overcast
12:15 PM 32.0 °F 27.5 °F 23.0 °F 69% 30.19 in 10.0 mi West 4.6 mph - N/A   Overcast
12:30 PM 32.0 °F 24.2 °F 23.0 °F 69% 30.19 in 10.0 mi West 9.2 mph - N/A   Overcast
12:55 PM 32.0 °F - 23.0 °F 69% 30.19 in 10.0 mi Calm Calm - N/A   Overcast
1:15 PM 32.0 °F 25.6 °F 23.0 °F 69% 30.19 in 10.0 mi West 6.9 mph - N/A   Overcast
1:35 PM 32.0 °F 24.8 °F 23.0 °F 69% 30.18 in 10.0 mi WSW 8.1 mph - N/A   Overcast
1:55 PM 33.8 °F 27.0 °F 23.0 °F 65% 30.17 in 10.0 mi WSW 8.1 mph - N/A   Mostly Cloudy
2:15 PM 33.8 °F 28.6 °F 23.0 °F 65% 30.16 in 10.0 mi SW 5.8 mph - N/A   Partly Cloudy
2:35 PM 33.8 °F 29.6 °F 23.0 °F 65% 30.14 in 10.0 mi South 4.6 mph - N/A   Partly Cloudy
2:55 PM 35.6 °F 29.9 °F 23.0 °F 60% 30.13 in 10.0 mi WSW 6.9 mph - N/A   Clear
3:15 PM 35.6 °F 31.7 °F 23.0 °F 60% 30.11 in 10.0 mi SSW 4.6 mph - N/A   Clear
3:35 PM 37.4 °F - 23.0 °F 56% 30.10 in 10.0 mi Calm Calm - N/A   Clear
3:55 PM 37.4 °F 32.8 °F 23.0 °F 56% 30.09 in 10.0 mi South 5.8 mph - N/A   Clear
4:10 PM 39.2 °F - 21.2 °F 49% 30.10 in 10.0 mi Calm Calm - N/A   Clear
4:35 PM 39.2 °F - 23.0 °F 52% 30.08 in 10.0 mi Calm Calm - N/A   Clear
4:55 PM 39.2 °F 34.2 °F 23.0 °F 52% 30.08 in 10.0 mi West 6.9 mph - N/A   Clear
5:15 PM 41.0 °F 36.4 °F 23.0 °F 49% 30.08 in 10.0 mi West 6.9 mph - N/A   Clear
5:35 PM 39.2 °F 34.2 °F 23.0 °F 52% 30.07 in 10.0 mi SW 6.9 mph - N/A   Clear
5:55 PM 39.2 °F 34.2 °F 23.0 °F 52% 30.06 in 10.0 mi West 6.9 mph - N/A   Clear
6:15 PM 39.2 °F 32.5 °F 23.0 °F 52% 30.06 in 10.0 mi SSW 10.4 mph - N/A   Clear
6:35 PM 39.2 °F 33.6 °F 23.0 °F 52% 30.06 in 10.0 mi SSW 8.1 mph - N/A   Clear
6:55 PM 39.2 °F 33.0 °F 23.0 °F 52% 30.06 in 10.0 mi SSW 9.2 mph - N/A   Clear
7:15 PM 37.4 °F 30.3 °F 23.0 °F 56% 30.06 in 10.0 mi SSW 10.4 mph - N/A   Clear
7:35 PM 37.4 °F 30.8 °F 23.0 °F 56% 30.06 in 10.0 mi SSW 9.2 mph - N/A   Clear
7:50 PM 37.4 °F 32.1 °F 23.0 °F 56% 30.07 in 10.0 mi SSW 6.9 mph - N/A   Clear
8:15 PM 37.4 °F 32.8 °F 23.0 °F 56% 30.05 in 10.0 mi SSW 5.8 mph - N/A   Clear
8:35 PM 37.4 °F - 23.0 °F 56% 30.06 in 10.0 mi Calm Calm - N/A   Clear
8:55 PM 35.6 °F 31.7 °F 23.0 °F 60% 30.05 in 10.0 mi SW 4.6 mph - N/A   Clear
9:15 PM 35.6 °F - 23.0 °F 60% 30.05 in 10.0 mi Calm Calm - N/A   Clear
9:35 PM 33.8 °F 30.8 °F 23.0 °F 65% 30.05 in 10.0 mi SSW 3.5 mph - N/A   Clear
9:55 PM 35.6 °F - 23.0 °F 60% 30.06 in 10.0 mi Calm Calm - N/A   Clear
10:15 PM 35.6 °F - 23.0 °F 60% 30.05 in 10.0 mi Calm Calm - N/A   Clear
10:35 PM 33.8 °F - 23.0 °F 65% 30.04 in 10.0 mi Calm Calm - N/A   Clear
10:55 PM 33.8 °F 29.6 °F 23.0 °F 65% 30.04 in 10.0 mi SSW 4.6 mph - N/A   Clear
11:15 PM 33.8 °F - 23.0 °F 65% 30.03 in 10.0 mi Calm Calm - N/A   Clear
11:30 PM 33.8 °F - 23.0 °F 65% 30.03 in 10.0 mi Calm Calm - N/A   Clear
11:55 PM 32.0 °F 28.7 °F 23.0 °F 69% 30.01 in 10.0 mi South 3.5 mph - N/A   Clear
12:15 AM 32.0 °F 27.5 °F 24.8 °F 75% 30.01 in 10.0 mi SSW 4.6 mph - N/A   Clear
12:35 AM 33.8 °F 28.6 °F 24.8 °F 70% 30.01 in 10.0 mi SSW 5.8 mph - N/A   Clear
12:55 AM 33.8 °F 28.6 °F 24.8 °F 70% 30.00 in 10.0 mi SSW 5.8 mph - N/A   Clear